[[{"header":{"parameterUnit":"m.s-1","parameterCategory":1,"la1":30.2991,"la2":30.254,"lo1":-89.0895,"lo2":-89.0444,"dy":0.0017,"dx":0.0017,"nx":28,"ny":28,"refTime":"2026-01-31T03:00:00:Z","depth":0,"parameterNumber":2,"parameterNumberName":"U-component_of_WINDS"},"data":[0,0,0,0,0,0,0,0,0,0,0,0,0,0,0,0,0,0,0,0,0,0,0,0,0,0,0,0,0,0,0,0,0,0,0,0,0,0,0,0,0,0,0,0,0,0,0,0,0,0,0,0,0,0,0,0,0,0,3.0409,3.041,0,3.0448,3.0449,3.0449,3.0424,3.0423,3.0422,3.0421,3.0458,3.046,3.0462,0,0,0,0,0,0,0,0,0,0,0,0,0,3.0313,3.0315,3.0409,3.041,3.041,3.0448,3.0449,3.0449,3.0424,3.0423,3.0422,3.042,3.0458,3.046,3.0462,0,0,0,0,0,0,0,0,0,0,0,0,0,3.0354,3.0316,3.0409,3.0403,3.0402,3.0448,3.0449,3.0449,3.0425,3.0423,3.0421,3.042,3.0457,3.046,3.0463,3.0516,0,0,3.0472,3.0474,0,0,0,0,0,0,0,0,3.0352,3.0357,3.0403,3.0403,3.0403,3.043,3.0428,3.0472,3.0425,3.0416,3.0421,3.0419,3.045,3.0453,3.0464,3.0518,3.052,3.0473,3.0474,3.0476,3.0477,0,0,0,0,0,0,0,3.0349,3.0356,3.0425,3.0404,3.0404,3.0397,3.0401,3.0436,3.0442,3.0417,3.0415,3.042,3.045,3.0462,3.0465,3.052,3.0472,3.0475,3.0477,3.0478,3.0621,3.0623,0,0,0,0,0,0,3.0347,3.0353,3.0423,3.0426,3.0373,3.0401,3.0405,3.0423,3.0442,3.0443,3.0422,3.0419,3.0457,3.0462,3.0466,3.0531,3.0476,3.0479,3.048,3.0619,3.0621,3.0624,0,0,0,0,0,0,3.0345,3.0353,3.0422,3.0389,3.0397,3.0404,3.0424,3.0424,3.0436,3.0445,3.0446,3.0433,3.0456,3.0462,3.0505,3.0532,3.048,3.0483,3.0617,3.062,3.0622,3.0659,0,0,0,0,0,0,3.0342,3.0353,3.0373,3.039,3.0399,3.046,3.0426,3.0426,3.0442,3.0439,3.0456,3.0457,3.0455,3.05,3.0508,3.0535,3.0485,3.0614,3.0618,3.0622,3.0656,3.0663,3.067,0,0,0,0,0,3.0339,3.0381,3.0374,3.0383,3.0425,3.0461,3.0466,3.0464,3.0444,3.0465,3.0471,3.0457,3.0528,3.0505,3.0513,3.0541,3.0613,3.0617,3.0621,3.0653,3.0662,3.0669,0,0,0,0,0,0,3.0366,3.0383,3.0375,3.0425,3.0442,3.0457,3.0482,3.0473,3.0495,3.0491,3.0487,3.0491,3.0535,3.0543,3.0517,3.0595,3.0567,3.0573,3.0588,3.0597,3.0604,3.06,3.0488,0,0,0,0,0,3.0378,3.0406,3.0419,3.0461,3.0471,3.0475,3.0491,3.0488,3.0505,3.0512,3.0521,3.0538,3.0564,3.0581,3.0605,3.0658,3.0661,3.0681,3.0688,3.0694,3.0699,3.0728,3.0737,3.0638,3.0638,3.0638,0,0,3.0402,3.0415,3.0433,3.0467,3.048,3.0509,3.0481,3.0513,3.0535,3.0516,3.0557,3.0565,3.0583,3.0631,3.0652,3.0639,3.0728,3.07,3.0704,3.0706,3.0733,3.0743,3.0751,3.0641,3.064,3.064,0,0,3.0461,3.0474,3.0511,3.0525,3.0545,3.0549,3.0558,3.0575,3.058,3.0621,3.0608,3.0634,3.0679,3.0693,3.0706,3.0774,3.0761,3.0782,3.0817,3.0845,3.0853,3.086,3.0884,3.0893,3.0787,3.0787,3.0787,0,3.0488,3.0532,3.053,3.0564,3.058,3.0566,3.0603,3.0617,3.0644,3.0655,3.064,3.0698,3.0709,3.076,3.0777,3.0788,3.0798,3.0779,3.0852,3.0859,3.0866,3.0888,3.0897,3.0789,3.0789,3.0789,3.0789,0,3.0565,3.0596,3.0623,3.0651,3.067,3.0705,3.0709,3.0728,3.0724,3.0729,3.0772,3.0786,3.0814,3.0826,3.0822,3.0877,3.0868,3.0853,3.0824,3.0877,3.0899,3.0907,3.0793,3.0792,3.0791,3.0791,0,0,3.0639,3.0668,3.0678,3.0691,3.0714,3.0737,3.0773,3.0801,3.0818,3.0838,3.0867,3.0907,3.0894,3.0909,3.0906,3.0931,3.0984,3.0913,3.0913,3.0925,3.1047,3.1057,3.1067,3.0977,3.0979,3.098,3.1045,0,3.0699,3.0761,3.0762,3.0818,3.0847,3.0836,3.0867,3.0884,3.0891,3.0916,3.0923,3.0951,3.0932,3.0941,3.0965,3.0973,3.1008,3.0968,3.1004,3.1005,3.0998,3.1078,3.1089,3.1149,3.1053,3.1055,3.1056,0,3.0776,3.0801,3.0861,3.0881,3.0893,3.0921,3.0948,3.0972,3.0992,3.0995,3.1014,3.1008,3.1044,3.1016,3.1066,3.1039,3.1054,3.106,3.1062,3.1064,3.1032,3.1082,3.1169,3.1177,3.1069,3.1068,3.1067,0,3.0824,3.0872,3.0914,3.0926,3.0951,3.0971,3.0982,3.1,3.1018,3.1041,3.1053,3.108,3.1095,3.1116,3.1118,3.1098,3.1169,3.1141,3.1172,3.1172,3.1185,3.1184,3.1275,3.1197,3.1197,3.1197,3.1197,0,3.0891,3.0928,3.0936,3.0962,3.1004,3.1005,3.1046,3.1055,3.1073,3.11,3.1092,3.1118,3.112,3.1147,3.1149,3.119,3.1197,3.12,3.12,3.12,3.12,3.1209,3.1204,3.1199,3.1199,3.1198,3.1198,0,3.095,3.0957,3.1003,3.1024,3.103,3.1059,3.1077,3.1102,3.1109,3.1144,3.1152,3.1162,3.1194,3.1199,3.1235,3.1237,3.1286,3.1282,3.1279,3.1278,3.1309,3.1306,3.1407,3.1421,3.1335,3.1336,3.1337,0,3.0991,3.1019,3.1044,3.1063,3.1075,3.1105,3.1123,3.1126,3.1146,3.1172,3.1194,3.1225,3.125,3.1301,3.1311,3.134,3.1336,3.137,3.134,3.1339,3.1335,3.1333,3.1336,3.1375,3.1376,3.1376,3.1377,0,3.1063,3.1066,3.1093,3.1122,3.1145,3.1168,3.1189,3.1205,3.1211,3.1233,3.1266,3.1285,3.1324,3.1355,3.1383,3.1395,3.1387,3.1387,3.1395,3.1395,3.1392,3.1394,3.1294,3.1384,3.1383,3.1383,3.1382,3.1382,3.1114,3.1139,3.1161,3.1192,3.1209,3.123,3.1255,3.1265,3.1293,3.1325,3.1326,3.1361,3.1382,3.142,3.1434,3.1462,3.1451,3.1464,3.1467,3.1469,3.1472,3.1389,3.1468,3.1467,3.1467,3.1467,3.1467,0,3.1185,3.1199,3.1228,3.1259,3.1284,3.1276,3.13,3.1321,3.1353,3.1374,3.1399,3.1438,3.1468,3.1482,3.1513,3.1533,3.153,3.154,3.1538,3.1541,3.148,3.147,3.1542,3.1542,3.1542,3.1542,3.1542,3.1542,3.1225,3.1267,3.1273,3.1324,3.1338,3.1374,3.1388,3.1408,3.1425,3.1468,3.1494,3.1503,3.1522,3.1554,3.1582,3.1585,3.1596,3.1608,3.161,3.1553,3.1545,3.1538,3.1528,3.1611,3.1611,3.1668,3.1669,3.1669]},{"header":{"parameterUnit":"m.s-1","parameterCategory":1,"la1":30.2991,"la2":30.254,"lo1":-89.0895,"lo2":-89.0444,"dy":0.0017,"dx":0.0017,"nx":28,"ny":28,"refTime":"2026-01-31T03:00:00:Z","depth":0,"parameterNumber":3,"parameterNumberName":"V-component_of_WINDS"},"data":[0,0,0,0,0,0,0,0,0,0,0,0,0,0,0,0,0,0,0,0,0,0,0,0,0,0,0,0,0,0,0,0,0,0,0,0,0,0,0,0,0,0,0,0,0,0,0,0,0,0,0,0,0,0,0,0,0,0,-8.6261,-8.6264,0,-8.6521,-8.6524,-8.6527,-8.6463,-8.6458,-8.6453,-8.6448,-8.6711,-8.6722,-8.6734,0,0,0,0,0,0,0,0,0,0,0,0,0,-8.5708,-8.5718,-8.6261,-8.6264,-8.6267,-8.652,-8.6524,-8.6527,-8.6464,-8.6458,-8.6452,-8.6446,-8.6707,-8.6721,-8.6735,0,0,0,0,0,0,0,0,0,0,0,0,0,-8.5956,-8.5722,-8.626,-8.6266,-8.6269,-8.652,-8.6524,-8.6528,-8.6465,-8.6458,-8.645,-8.6443,-8.6702,-8.6719,-8.6737,-8.6996,0,0,-8.679,-8.6798,0,0,0,0,0,0,0,0,-8.5942,-8.5976,-8.6262,-8.6266,-8.627,-8.6452,-8.6425,-8.6685,-8.6467,-8.6391,-8.6448,-8.6439,-8.6631,-8.6653,-8.6719,-8.7008,-8.7019,-8.6792,-8.6802,-8.681,-8.6815,0,0,0,0,0,0,0,-8.5925,-8.5965,-8.6363,-8.6266,-8.6272,-8.6255,-8.6282,-8.6474,-8.655,-8.6397,-8.6393,-8.6425,-8.6631,-8.6702,-8.6724,-8.7023,-8.6791,-8.6807,-8.6818,-8.6824,-8.7539,-8.7547,0,0,0,0,0,0,-8.5905,-8.5951,-8.6355,-8.6371,-8.6084,-8.6271,-8.6301,-8.6401,-8.6547,-8.6563,-8.6431,-8.6421,-8.6676,-8.6704,-8.6733,-8.7047,-8.681,-8.6826,-8.6836,-8.753,-8.754,-8.755,0,0,0,0,0,0,-8.5893,-8.5941,-8.6345,-8.616,-8.621,-8.6289,-8.6401,-8.641,-8.6481,-8.6573,-8.6586,-8.6489,-8.6671,-8.6709,-8.6931,-8.7055,-8.6834,-8.685,-8.752,-8.7533,-8.7545,-8.7676,0,0,0,0,0,0,-8.5877,-8.5937,-8.6037,-8.6163,-8.622,-8.654,-8.6409,-8.6421,-8.6512,-8.6501,-8.6632,-8.6646,-8.6668,-8.6906,-8.6949,-8.7075,-8.6864,-8.7509,-8.7526,-8.7541,-8.7661,-8.7692,-8.7718,0,0,0,0,0,-8.5858,-8.6063,-8.6043,-8.6092,-8.6347,-8.6547,-8.658,-8.6602,-8.6522,-8.6623,-8.6682,-8.6642,-8.7035,-8.6929,-8.6977,-8.7111,-8.7502,-8.7521,-8.754,-8.7648,-8.7686,-8.7717,0,0,0,0,0,0,-8.5949,-8.6079,-8.6058,-8.631,-8.6419,-8.6536,-8.6664,-8.6641,-8.6773,-8.6757,-8.6778,-8.6808,-8.7036,-8.7095,-8.6975,-8.7369,-8.7256,-8.7286,-8.7322,-8.7359,-8.7387,-8.7368,-8.6878,0,0,0,0,0,-8.5998,-8.6151,-8.6256,-8.6468,-8.6524,-8.6585,-8.6673,-8.6681,-8.6793,-8.6838,-8.6913,-8.7023,-8.7171,-8.7268,-8.7409,-8.7669,-8.7697,-8.7785,-8.7813,-8.7836,-8.7861,-8.8004,-8.8045,-8.7612,-8.7612,-8.7612,0,0,-8.6101,-8.6192,-8.6287,-8.6489,-8.6573,-8.673,-8.6623,-8.6794,-8.691,-8.6863,-8.7079,-8.7138,-8.7261,-8.7504,-8.7615,-8.7561,-8.7987,-8.786,-8.7878,-8.7891,-8.8028,-8.8069,-8.8105,-8.7625,-8.7623,-8.7621,0,0,-8.6371,-8.6454,-8.6641,-8.6728,-8.6858,-8.6897,-8.6942,-8.7064,-8.7102,-8.7319,-8.7287,-8.7425,-8.768,-8.777,-8.7848,-8.8153,-8.8121,-8.8198,-8.8346,-8.8485,-8.8519,-8.855,-8.8659,-8.8698,-8.8223,-8.8223,-8.8223,0,-8.6483,-8.6719,-8.6739,-8.6914,-8.7003,-8.6969,-8.7158,-8.7241,-8.741,-8.7473,-8.741,-8.773,-8.781,-8.8074,-8.8148,-8.8213,-8.8265,-8.8183,-8.8513,-8.8544,-8.8572,-8.8677,-8.8718,-8.8232,-8.8231,-8.823,-8.8229,0,-8.6851,-8.7015,-8.715,-8.7316,-8.742,-8.7601,-8.7648,-8.7752,-8.7751,-8.7797,-8.8018,-8.8114,-8.8274,-8.8337,-8.8337,-8.8602,-8.8564,-8.8508,-8.8394,-8.8622,-8.872,-8.876,-8.8244,-8.8241,-8.8238,-8.8236,0,0,-8.7184,-8.736,-8.7409,-8.7484,-8.7625,-8.7752,-8.7931,-8.8089,-8.8178,-8.8296,-8.8446,-8.8663,-8.8612,-8.8701,-8.8711,-8.8833,-8.9069,-8.8761,-8.8764,-8.8816,-8.9367,-8.941,-8.9456,-8.9048,-8.9056,-8.9062,-8.9357,0,-8.7467,-8.7783,-8.7807,-8.8092,-8.8244,-8.8214,-8.837,-8.8473,-8.8521,-8.8656,-8.8708,-8.8862,-8.8782,-8.8836,-8.8955,-8.9015,-8.918,-8.8994,-8.9188,-8.9195,-8.9159,-8.9507,-8.9553,-8.9826,-8.9395,-8.9402,-8.9407,0,-8.7838,-8.7969,-8.827,-8.8391,-8.8455,-8.8595,-8.8743,-8.8873,-8.8989,-8.9015,-8.9116,-8.9109,-8.9292,-8.9172,-8.9425,-8.9298,-8.9378,-8.942,-8.9431,-8.945,-8.9315,-8.9537,-8.9914,-8.9956,-8.9467,-8.9462,-8.9458,0,-8.8053,-8.8304,-8.8516,-8.8581,-8.8727,-8.8826,-8.8891,-8.9,-8.9094,-8.9223,-8.9284,-8.9431,-8.9512,-8.9626,-8.9659,-8.9569,-8.9912,-8.9794,-8.9938,-8.9938,-9.0012,-9.0007,-9.0409,-9.0063,-9.0062,-9.0062,-9.0061,0,-8.8366,-8.8552,-8.8615,-8.8746,-8.8953,-8.8978,-8.9182,-8.9241,-8.9338,-8.9479,-8.9461,-8.9594,-8.9629,-8.9769,-8.9795,-9.0001,-9.0037,-9.0063,-9.0068,-9.0066,-9.0063,-9.0119,-9.0101,-9.0073,-9.007,-9.0068,-9.0066,0,-8.8641,-8.8691,-8.8921,-8.904,-8.9075,-8.9222,-8.9324,-8.945,-8.9494,-8.9674,-8.9717,-8.9788,-8.9951,-8.9995,-9.019,-9.0208,-9.045,-9.0437,-9.0412,-9.0412,-9.0554,-9.054,-9.1007,-9.107,-9.0682,-9.0685,-9.0688,0,-8.8838,-8.898,-8.9116,-8.921,-8.928,-8.9431,-8.9527,-8.9557,-8.9658,-8.9802,-8.9911,-9.0072,-9.0202,-9.0464,-9.0532,-9.0681,-9.0672,-9.0825,-9.0694,-9.0687,-9.0675,-9.0667,-9.0681,-9.085,-9.0854,-9.0857,-9.086,0,-8.9183,-8.9201,-8.9341,-8.9491,-8.9606,-8.9725,-8.9839,-8.9917,-8.9963,-9.0077,-9.0245,-9.0346,-9.0546,-9.0706,-9.0857,-9.0922,-9.09,-9.0901,-9.0942,-9.0941,-9.0922,-9.0935,-9.0481,-9.089,-9.0887,-9.0885,-9.0883,-9.0882,-8.9426,-8.9551,-8.9667,-8.9823,-8.9912,-9.002,-9.0144,-9.0205,-9.0346,-9.0512,-9.0521,-9.0703,-9.0815,-9.1016,-9.109,-9.1232,-9.1186,-9.1246,-9.1261,-9.1276,-9.1288,-9.0898,-9.1259,-9.1258,-9.1258,-9.1257,-9.1256,0,-8.9771,-8.9844,-8.9988,-9.0148,-9.0272,-9.0241,-9.0365,-9.047,-9.0631,-9.0739,-9.0868,-9.1061,-9.1216,-9.1297,-9.1451,-9.155,-9.1543,-9.1589,-9.1583,-9.1598,-9.132,-9.1269,-9.1592,-9.1592,-9.1592,-9.1592,-9.1592,-9.1592,-8.9965,-9.0176,-9.0208,-9.0462,-9.0534,-9.0713,-9.0787,-9.0885,-9.0971,-9.1188,-9.1318,-9.137,-9.1467,-9.1628,-9.1769,-9.1789,-9.1847,-9.1899,-9.1913,-9.1652,-9.1618,-9.1585,-9.1538,-9.1911,-9.1912,-9.218,-9.2182,-9.2184]}]]